Regional Weather Roundup
Issued by NWS

Home | Current Version | Previous Version | Graphics & Text | Print | Product List | Glossary On
Versions: 1 2 3 4 5 6 7 8 9 10 11 12 13 14 15 16 17 18 19 20 21 22 23 24 25 26 27 28 29 30 31 32 33 34 35 36 37 38 39 40 41 42 43 44 45 46 47 48 49 50
000
ASUS43 KMKX 281621
RWRWI

WISCONSIN REGIONAL WEATHER ROUNDUP
NATIONAL WEATHER SERVICE MILWAUKEE/SULLIVAN WI
1000 AM CST SUN DEC 28 2014

NOTE: "FAIR" INDICATES FEW OR NO CLOUDS BELOW 12,000 FEET WITH NO
SIGNIFICANT WEATHER AND/OR OBSTRUCTIONS TO VISIBILITY.

WIZ001-002-006>008-014>016-023>028-281700-
NORTHWEST WISCONSIN

CITY           SKY/WX    TMP DP  RH WIND       PRES   REMARKS
SUPERIOR ARPT  SUNNY     14   3  62 NW10      30.19R WCI   1
ASHLAND        CLOUDY    18  11  74 NW12      30.14R WCI   5
HAYWARD        PTSUNNY   18  14  84 VRB3      30.12R
SIREN          LGT SNOW  18  14  85 N5        30.15R WCI  11
CUMBERLAND     LGT SNOW  16  12  86 NW5       30.11R WCI   9
RICE LAKE      LGT SNOW  15  11  83 CALM      30.15R
CHETEK         LGT SNOW  15  11  85 CALM      30.14R
LADYSMITH      LGT SNOW  13  11  91 CALM      30.13R
EAU CLAIRE     CLOUDY    11   8  88 SW3       30.15R
MENOMONIE      LGT SNOW  12   9  89 CALM      30.15S
NEW RICHMOND   FLURRIES  14  10  85 CALM      30.14R
OSCEOLA        CLOUDY    14  11  87 CALM      30.18R FOG
$$

WIZ003>005-009-010-017-018-281700-
NORTH CENTRAL WISCONSIN

CITY           SKY/WX    TMP DP  RH WIND       PRES   REMARKS
MANITOWISH WTR LGT SNOW  13  11  90 W5        30.05R WCI   6
ARBOR VITAE    PTSUNNY   17  14  88 W5        30.05R WCI  10
WOODRUFF       PTSUNNY   17  14  88 W5        30.05R WCI  10
RHINELANDER    PTSUNNY   12   9  87 W7        30.07R WCI   1
EAGLE RIVER    SUNNY     15  10  81 W8        30.04R WCI   4
LAND O LAKES   LGT SNOW  17  13  85 W5        30.04R WCI  10
PHILLIPS       LGT SNOW  13  10  89 CALM      30.09R
TOMAHAWK       LGT SNOW  14  11  90 CALM      30.08R
MEDFORD        LGT SNOW  11   9  89 CALM      30.09R
MERRILL        LGT SNOW  13  11  91 CALM      30.10R
$$

WIZ029-030-035-036-043>047-281700-
CENTRAL WISCONSIN

CITY           SKY/WX    TMP DP  RH WIND       PRES   REMARKS
WAUSAU         CLOUDY    15  11  83 NW6       30.10R FOG     WCI   6
MOSINEE        CLOUDY    14  14 100 W5        30.11R FOG     WCI   6
MARSHFIELD     CLOUDY    12   8  84 W5        30.11R WCI   4
STEVENS POINT  CLOUDY    15  13  91 CALM      30.13R
WAUPACA        SUNNY     23  17  76 W5        30.14R WCI  17
WAUTOMA        PTSUNNY   21  18  86 NW6       30.16R WCI  14
WISC RAPIDS    SUNNY     17  12  80 NW3       30.15R
CAMP DOUGLAS   MOSUNNY   19  19 100 VRB3      30.15R
$$

WIZ011>013-019>022-031-037>040-048>050-281700-
NORTHEAST WISCONSIN

CITY           SKY/WX    TMP DP  RH WIND       PRES   REMARKS
ANTIGO         LGT SNOW  13  11  92 NW7       30.08R VSB 1   WCI   2
SHAWANO        SUNNY     20  14  78 W5        30.13R WCI  13
OCONTO         SUNNY     21  15  78 W9        30.12S WCI  10
STURGEON BAY   SUNNY     21  12  68 W10       30.12S WCI  10
GREEN BAY      MOSUNNY   23  17  78 W10       30.14R WCI  12
MANITOWOC      SUNNY     24  19  81 W12       30.13S WCI  13
APPLETON       PTSUNNY   19  16  86 W9        30.13R WCI   9
CLINTONVILLE   SUNNY     21  14  73 W5        30.14R WCI  15
OSHKOSH        MOSUNNY   21  15  78 W7        30.15R WCI  12
$$

WIZ032>034-041-042-053>061-281700-
SOUTHWEST WISCONSIN

CITY           SKY/WX    TMP DP  RH WIND       PRES   REMARKS
LA CROSSE      SUNNY     19  12  74 S3        30.18R
SPARTA         MOSUNNY   19  13  80 SW3       30.17R
VIROQUA        SUNNY     20  17  89 W5        30.13R WCI  13
BOSCOBEL       SUNNY     21  16  81 S5        30.19R WCI  15
PRAIRIE DU CHI SUNNY     21  14  74 CALM      30.20R
PLATTEVILLE    SUNNY     22  19  87 CALM      30.18R
$$

WIZ056-057-062-063-064-067-068-281700-
SOUTH CENTRAL WISCONSIN

CITY           SKY/WX    TMP DP  RH WIND       PRES   REMARKS
REEDSBURG      SUNNY     21  16  79 W5        30.15R WCI  15
BARABOO/DELLS  SUNNY     22  16  76 W5        30.15R WCI  16
LONE ROCK      SUNNY     24  15  68 VRB3      30.18R
MINERAL POINT  SUNNY     25  19  80 SW5       30.15R WCI  19
MADISON        MOSUNNY   22  15  75 SW7       30.16R WCI  13
MIDDLETON      SUNNY     25  17  69 SW5       30.17R WCI  19
WATERTOWN      SUNNY     24  17  75 W5        30.16R WCI  18
MONROE         SUNNY     23  19  86 W5        30.16R WCI  17
JANESVILLE     SUNNY     25  18  74 W6        30.17R WCI  18
$$

WIZ051-052-058>065-066-070>072-281700-
SOUTHEAST WISCONSIN

CITY           SKY/WX    TMP DP  RH WIND       PRES   REMARKS
MILWAUKEE      MOSUNNY   27  15  61 W6        30.16R WCI  20
WAUKESHA       SUNNY     23  16  74 W5        30.15S WCI  17
MILWAUKEE/TIMM SUNNY     27  16  63 W10       30.16R WCI  17
RACINE         SUNNY     25  15  66 W6        30.18R WCI  18
BURLINGTON     SUNNY     25  16  67 W6        30.16S WCI  18
KENOSHA        SUNNY     26  16  65 W9        30.17R WCI  17
FOND DU LAC    SUNNY     23  14  68 W8        30.15S WCI  14
SHEBOYGAN      SUNNY     24  17  74 W12       30.13S WCI  13
WEST BEND      SUNNY     27  18  69 W9        30.14R WCI  17
JUNEAU         SUNNY     22  16  78 SW7       30.16R WCI  13
$$

LSZ147-162-281700-
LAKE SUPERIOR

STATION/POSITION TIME  TEMP    WIND        PRES    WAVE
                       AIR SEA DIR/SP/G            HT/PER
                 (UTC) (F)     (DEG/KT/KT) (MB)    (FT/S)
DEVILS ISLAND    1600   13     320/ 12/ 16 1022.7R
PORT WING        1500   17     310/ 15/ 19 1021.0R
SAXON HARBOR     1500   19     240/  4/  8 1019.6R
$$

LMZ867-665-643>646-281700-
LAKE MICHIGAN

STATION/POSITION TIME  TEMP    WIND        PRES    WAVE
                       AIR SEA DIR/SP/G            HT/PER
                 (UTC) (F)     (DEG/KT/KT) (MB)    (FT/S)
CHAMBERS ISLAND  1500   21     220/  6/ 11 1019.0R
NORTHPORT PIER   1604   23     270/  7/ 16 1019.0R
SISTER BAY       1543          290/ 13/ 15   N/A
ALGOMA LAKESHORE 1545          310/ 10/ 19   N/A
KEWAUNEE LAKESHO 1500   22     280/  9/ 15 1018.4R
SHEBOYGAN LAKESH 1600   24 36  270/ 10/ 12 1021.8R
PORT WASHINGTON  1540   27     270/  7/ 10 1021.7R
MILWAUKEE LAKESH 1600   26     280/  8/ 11   N/A
KENOSHA   LAKESH 1600   26     270/  8/ 10 1021.7R
$$

TC  - TEMPERATURE IN CELSIUS
VSB - VISIBILITY IN STATUTE MILES
WCI - WIND CHILL INDEX
HX  - HEAT INDEX




USA.gov is the U.S. government's official web portal to all federal, state and local government web resources and services.